Regional Weather Roundup
Issued by NWS Little Rock, AR

Home | Current Version | Previous Version | Graphics & Text | Print | Product List | Glossary On
Versions: 1 2 3 4 5 6 7 8 9 10 11 12 13 14 15 16 17 18 19 20 21 22 23 24 25 26 27 28 29 30 31 32 33 34 35 36 37 38 39 40 41 42 43 44 45 46 47 48 49 50
000
ASUS44 KLZK 241705
RWRLZK

WEATHER ROUNDUP FOR ARKANSAS
NATIONAL WEATHER SERVICE LITTLE ROCK AR
1200 PM CDT FRI APR 24 2015

NOTE: "FAIR" INDICATES FEW OR NO CLOUDS BELOW 12,000 FEET WITH NO
SIGNIFICANT WEATHER AND/OR OBSTRUCTIONS TO VISIBILITY.

ARZ001-003-010-029-241800-
NORTHWEST ARKANSAS

CITY           SKY/WX    TMP DP  RH WIND       PRES   REMARKS
FAYETTEVILLE   CLOUDY    65  56  72 S16       29.86F
FORT SMITH     CLOUDY    62  49  62 E12       29.87F
HARRISON       CLOUDY    54  48  80 SE16      29.93F
BENTONVILLE    CLOUDY    66  54  63 S12       29.86F
ROGERS         CLOUDY    62  53  72 SE10      29.86F
SILOAM SPGS    CLOUDY    66  54  63 S17G23    29.86F
HIGHFILL       CLOUDY    67  56  67 S16       29.84F
SPRINGDALE     MOSUNNY   66  55  68 S9G21     29.88F
$$

ARZ004-005-016-241800-
NORTH CENTRAL ARKANSAS

CITY           SKY/WX    TMP DP  RH WIND       PRES   REMARKS
BATESVILLE     CLOUDY    55  48  76 E6        30.00F
FLIPPIN        CLOUDY    54  46  76 E8        29.94F
MTN HOME       CLOUDY    52  46  80 E9        29.95F
$$

ARZ040-041-241800-
WEST CENTRAL ARKANSAS

CITY           SKY/WX    TMP DP  RH WIND       PRES   REMARKS
MENA           CLOUDY    59  57  94 E6        29.93F
MOUNT IDA      LGT RAIN  60  58  92 VRB3      29.92F FOG
$$

ARZ009-017-025-026-028-241800-
NORTHEAST ARKANSAS

CITY           SKY/WX    TMP DP  RH WIND       PRES   REMARKS
CORNING        LGT RAIN  52  46  82 S3        30.07R
JONESBORO      LGT RAIN  54  49  83 N5        30.03R
NEWPORT        LGT RAIN  57  48  72 NE5       30.04S
WALNUT RIDGE   CLOUDY    50  45  81 NE10      30.02F
BLYTHEVILLE    CLOUDY    62  41  46 E8        30.02S
NW BLYTHEVILLE CLOUDY    63  39  42 E7        30.02F
$$

ARZ022-023-033-042-044-241800-
CENTRAL ARKANSAS

CITY           SKY/WX    TMP DP  RH WIND       PRES   REMARKS
LITTLE ROCK    LGT RAIN  58  53  84 SW10      30.00R
N LITTLE ROCK  CLOUDY    56  55  94 S7        30.00R
JACKSONVILLE   LGT RAIN  57  54  88 S2        29.99R
SEARCY         CLOUDY    58  52  80 SE5       29.99F
HOT SPRINGS    RAIN      57  55  93 NE3       29.99R FOG
RUSSELLVILLE   LGT RAIN  57  52  83 E7        29.94F
$$

ARZ036-241800-
EAST ARKANSAS

CITY           SKY/WX    TMP DP  RH WIND       PRES   REMARKS
WEST MEMPHIS   CLOUDY    64  43  46 SE14      29.98S
$$

ARZ050-053-066-070-073-241800-
SOUTHWEST ARKANSAS

CITY           SKY/WX    TMP DP  RH WIND       PRES   REMARKS
ARKADELPHIA    HVY RAIN  59  59 100 NE7       29.94F FOG
CAMDEN         HVY RAIN  57  54  88 N7        29.98F
TEXARKANA      CLOUDY    59  58  96 E6        29.92F
EL DORADO      LGT RAIN  59  58  96 N12       29.97R
DE QUEEN       LGT RAIN  58  57  97 E6        29.90F
$$

ARZ056-057-069-241800-
SOUTHEAST ARKANSAS

CITY           SKY/WX    TMP DP  RH WIND       PRES   REMARKS
PINE BLUFF     RAIN      57  54  89 S9        29.99S
STUTTGART      CLOUDY    61  48  63 SE14      29.98F
MONTICELLO     LGT RAIN  59  56  89 E5        29.98F

$$




USA.gov is the U.S. government's official web portal to all federal, state and local government web resources and services.